CUBESX-HSE 3 (RS42S)

Last updated on Fri Apr 25 2025 00:03:00 GMT+0000 (Coordinated Universal Time)

1 57178U 23091N 25114.51437216 .00017968 00000+0 84127-3 0 9990 2 57178 97.5657 172.1200 0015490 122.1458 238.1282 15.19680296100615
UTC large
Height (km)
Speed (km/s)
/
Latitude / Longitude
Inclination (degrees)
Orbital Period (minutes)
Azimuth
Elevation
Range (km)
Doppler Factor

Next 0 passes for location: London (51.5072 / 0.1276)

Sorry there are no passes over London.